Погода Ганюшкино

Погода Ганюшкино : погода сейчас, прогноз погоды и архив. Всё, что Вы хотите узнать о погоде Ганюшкино!

Хотите узнать прогноз погоды Ганюшкино? Тогда Вам сюда: Погода Ганюшкино

Поиск расширенной информации на нашем сайте:

Другие новости

Новости СМИ2

Главная страница сайта

Новости сайта

03.07.2017

Напоминаем, что на нашем специализированном сайте Метеоцентр.Азия вы можете получить высокодетализированные автоматические прогнозы погоды по пунктам России, СНГ и мира в авиационном формате (включающие направление и скорость ветра, видимость, явления погоды, количество и форму облачности, нижнюю и верхнюю границу облачности).


Погода Ганюшкино - сегодня

Время (UTC), дата Ветер
(°,м/с) 
Видим.   Явления Облачность Т
(°С)
Тd
(°С)
f(%) Тe
(°С)
Pmin
(гПа)
dP
(гПа)
Po
(мм)
O2
(г/м3)
Тmin Tmax R s Состояние
почвы
18 14.02.18 090 (В) 10 км    ясно 
-8.3 -11.5 78 -12  1032.6  1.1  777  324    -5       
21 14.02.18 070 (В) 10 км    ясно 
-8.7 -11.6 79 -13  1032.8  0.2  777  325           
00 15.02.18 070 (В) 10 км    10/0 средняя 
[Ac und]
-7.5 -10.1 82 -10  1033.3  0.5  777  323           
03 15.02.18 080 (В) 10 км    10/0 средняя 
[Ac und]
-7.7 -9.9 84 -12  1033.5  0.2  778  323  -9.2      равномерный
мокрый или
старый снег
100% 
06 15.02.18 080 (В) 10 км    10/0 средняя 
[Ac und]
-7.5 -10.5 79 -12  1035.3  1.8  779  324  -9.2         
09 15.02.18 070 (В) 10 км    10/0 средняя 
[Ac und]
-5.5 -10.6 67 -10  1036.3  780  322           
12 15.02.18 080 (В) 10 км    10/0 верхняя 
[Ci fib]
-4.6 -10.3 64 -8  1036.9  0.6  780  321           
15 15.02.18 080 (В) 10 км    4/0 средняя 
[Ac trans]
-7.2 -11.5 71 -11  1037.9  781  324    -4.5       
18 15.02.18 050 (СВ) 10 км    10/0 средняя 
[Ac und]
-9.7 -12.8 78 -14  1038.4  0.5  781  328    -4.5       
21 15.02.18 050 (СВ) 10 км    10/0 средняя 
[Ac und]
-11.3 -14.1 80 -15  1038.5  0.1  781  330           
00 16.02.18 070 (В) 10 км    10/0 средняя 
[Ac und]
-12.5 -15.2 80 -17  1038.5  781  331           
03 16.02.18 070 (В) 10 км    ясно 
-12.1 -14.1 85 -17  1039.2  0.7  782  331        равномерный
мокрый или
старый снег
100% 
06 16.02.18 090 (В) 10 км    4/0 верхняя 
[Ci fib]
-10.2 -13 80 -16  1039.5  0.3  782  329  -12.7         
09 16.02.18 080 (В) 10 км    5/0 верхняя 
[Ci fib]
-4 -9.8 64 -9  1039.2  -0.4  782  321           
12 16.02.18 080 (В) 20000 м    ясно 
-3.3 -9.7 61 -7  1038.5  -0.7  781  320           
15 16.02.18 080 (В) 10 км    ясно 
-6.4 -11.4 68 -12  1037.9  -0.5  781  323           
18 16.02.18 080 (В) 10 км    ясно 
-7.9 -11.5 75 -13  1037.7  -0.2  781  325    -3       
21 16.02.18 070 (В) 10 км    ясно 
-9.2 -12.2 79 -14  1036.3  -1.4  780  326           
00 17.02.18 080 (В) 10 км    ясно 
-9.3 -11.8 82 -14  1035.3  -1  779  326           
03 17.02.18 080 (В) 10 км    ясно 
-10.7 -13.5 80 -16  1034.5  -1  778  328        равномерный
мокрый или
старый снег
100% 
06 17.02.18 090 (В) 10 км    6/0 верхняя 
[Ci fib]
-8.4 -11.6 78 -13  1034  -0.3  778  325  -10.9         
09 17.02.18 080 (В) 10 км    6/0 верхняя 
[Ci fib]
-3.5 -9.1 65 -8  1032.5  -1.5  777  318           
12 17.02.18 080 (В) 10 км    8/0 верхняя 
[Ci fib]
-3.3 -10.2 59 -9  1030.5  -2.1  775  317           
15 17.02.18 070 (В) 10 км    10/0 верхняя 
[Cs]
-6.8 -12 66 -13  1030.2  -0.3  775  321    -3.1       
18 17.02.18 090 (В) 10 км    10/0 средняя 
[Ac und]
-7 -10.8 74 -13  1029.9  -0.3  775  321    -3.1       
Время (UTC), дата Ветер
(°,м/с) 
Видим.   Явления Облачность Т
(°С)
Тd
(°С)
f(%) Тe
(°С)
Pmin
(гПа)
dP
(гПа)
Po
(мм)
O2
(г/м3)
Тmin Tmax R s Состояние
почвы

Для получения пояснительной информации подведите курсор к названию столбца.

ПОГОДА Ганюшкино - архив

Всё, что Вы хотите узнать о погоде Ганюшкино - удобно и подробно!

Выберите нужную дату (начиная с 1 января 2015* года) и нажмите кнопку "Найти".
Будут отображены архивные сводки погоды по пункту Ганюшкино, начиная с указанной даты.


Отображать данные в формате CSV (для использования в таблицах Excel)


Внимание! Наш архив погоды предназначен исключительно для личного некоммерческого использования в познавательных целях. Если Вам необходимы официальные справки о состоянии погоды (для производственных, юридических, коммерческих и т.п. целей), обращайтесь в органы Росгидромета.

*Примечание: данная дата относится к архиву по метеостанциям СССР (Россия, СНГ, Балтия).
Архив по метеостанциям Зарубежной Европы и Азии (кроме Китая) хранится 10 дней, по другим регионам земного шара (Китай, Африка, Америка, Австралия, Океания) - 1 день.

Ганюшкино - район местоположения метеостанции


Название, широта, долгота, высота метеостанции:
Ганюшкино 46.6°ш. 49.3°д. -23 м над ур. моря [Казахстан]

Дополнительная информация

В oтличие oт бoльшинства пoгoдных сайтoв мы публикуем пoдрoбную метеoинфoрмацию в детальнoм прoфессиoнальнoм фoрмате.

Характеристики температуры и влажнoсти вoздуха измеряются на высoте 2 м в тени вдали oт зданий и деревьев.
Скoрoсть ветра измеряется на высoте 10 м (на урoвне рoста челoвека скoрoсть ветра ниже в 1.5-2 раза). Если метеoстанция нахoдится в гoрoде или в лесу, тo скoрoсть ветра занижена на 2-4 м/с пo сравнению с oткрытым местoм. Скoрoсть ветра над акватoриями крупных рек и oзёр, а также на вершинах хoлмoв на 2-5 м/с выше, чем в oбычных услoвиях.
Атмoсфернoе давление в разных тoчках местнoсти мoжет значительнo oтличаться oт давления на метеoстанции, в зависимoсти oт услoвий рельефа (при пoдъёме на 10 м давление пoнижается примернo на 1 мм рт.ст.).